QPF
0.04 0.05 0.09 0.14 0.22 0.28 0.29 0.26 0.24 0.25 0.21 0.23 0.26 0.29 0.34 0.42 0.48 0.45 0.42 0.38 0.42 0.49 0.52 0.56 0.45 0.40 0.39 0.34 0.31 0.27 0.25 0.21 0.19 0.20 0.19 0.16 0.15 0.15 0.11 0.08 0.06 0.05 0.04
0.06 0.05 0.08 0.12 0.16 0.24 0.28 0.24 0.22 0.23 0.23 0.25 0.33 0.38 0.40 0.42 0.46 0.47 0.40 0.38 0.38 0.40 0.40 0.41 0.40 0.36 0.36 0.35 0.32 0.29 0.24 0.19 0.17 0.17 0.18 0.14 0.15 0.12 0.08 0.06 0.05 0.04 0.03
0.07 0.06 0.07 0.10 0.12 0.16 0.26 0.27 0.24 0.22 0.24 0.27 0.33 0.39 0.46 0.48 0.42 0.41 0.41 0.39 0.36 0.35 0.34 0.28 0.25 0.26 0.29 0.30 0.29 0.27 0.24 0.20 0.17 0.14 0.15 0.14 0.14 0.15 0.11 0.06 0.04 0.03 0.02
0.10 0.07 0.09 0.12 0.13 0.16 0.20 0.24 0.25 0.24 0.27 0.29 0.31 0.41 0.46 0.42 0.38 0.33 0.31 0.27 0.24 0.22 0.20 0.16 0.15 0.16 0.19 0.20 0.21 0.23 0.21 0.19 0.17 0.15 0.12 0.11 0.10 0.11 0.10 0.09 0.07 0.05 0.04
0.09 0.07 0.06 0.09 0.13 0.14 0.15 0.14 0.18 0.25 0.30 0.30 0.30 0.32 0.38 0.38 0.35 0.30 0.28 0.23 0.21 0.19 0.17 0.16 0.13 0.12 0.12 0.13 0.15 0.16 0.17 0.17 0.17 0.16 0.14 0.14 0.12 0.10 0.08 0.09 0.07 0.06 0.05
0.07 0.07 0.05 0.04 0.07 0.07 0.07 0.08 0.11 0.14 0.25 0.31 0.28 0.27 0.27 0.25 0.24 0.20 0.19 0.18 0.14 0.14 0.15 0.17 0.15 0.13 0.11 0.09 0.09 0.10 0.11 0.11 0.11 0.12 0.12 0.12 0.14 0.14 0.13 0.11 0.10 0.08 0.06
0.02 0.02 0.02 0.02 0.02 0.02 0.04 0.05 0.09 0.14 0.16 0.19 0.25 0.26 0.24 0.21 0.17 0.13 0.11 0.10 0.10 0.11 0.11 0.10 0.11 0.12 0.12 0.12 0.11 0.09 0.09 0.09 0.10 0.10 0.11 0.12 0.12 0.12 0.12 0.11 0.09 0.06 0.04
0.03 0.02 0.01 0.02 0.02 0.02 0.03 0.04 0.05 0.09 0.12 0.14 0.18 0.20 0.18 0.20 0.20 0.13 0.10 0.09 0.07 0.07 0.07 0.06 0.07 0.08 0.08 0.09 0.09 0.08 0.08 0.07 0.08 0.08 0.07 0.07 0.06 0.05 0.04 0.03 0.03 0.03 0.02
0.03 0.02 0.01 0.01 0.01 0.01 0.02 0.03 0.05 0.06 0.08 0.09 0.10 0.10 0.11 0.13 0.15 0.14 0.11 0.08 0.06 0.05 0.05 0.05 0.06 0.07 0.08 0.08 0.07 0.05 0.05 0.04 0.03 0.03 0.02 0.02 0.02 0.01 0.01 0.01 0.01 0.01 0.01
0.02 0.02 0.01 0.01 0.01 0.01 0.01 0.02 0.03 0.05 0.06 0.06 0.06 0.06 0.05 0.05 0.06 0.06 0.04 0.03 0.03 0.02 0.02 0.02 0.03 0.03 0.04 0.03 0.03 0.02 0.01 0.01 0.01 0.01 0.01 0.01 0.01 0.01 0.00 0.00 0.00 0.00 0.00
0.01 0.01 0.01 0.01 0.01 0.01 0.02 0.02 0.02 0.03 0.05 0.06 0.06 0.07 0.06 0.05 0.04 0.03 0.03 0.02 0.01 0.01 0.01 0.01 0.01 0.01 0.02 0.02 0.02 0.02 0.02 0.01 0.01 0.01 0.01 0.01 0.00 0.00 0.00 0.00 0.00 0.00 0.00
0.01 0.01 0.01 0.01 0.02 0.02 0.02 0.02 0.03 0.03 0.05 0.05 0.05 0.06 0.07 0.06 0.06 0.04 0.02 0.01 0.01 0.00 0.00 0.00 0.01 0.01 0.01 0.01 0.01 0.01 0.01 0.01 0.01 0.01 0.00 0.00 0.00 0.00 0.00 0.00 0.00 0.00 0.00
0.01 0.01 0.01 0.02 0.03 0.03 0.03 0.02 0.03 0.04 0.04 0.05 0.05 0.05 0.05 0.04 0.04 0.03 0.02 0.01 0.01 0.00 0.00 0.00 0.00 0.00 0.00 0.00 0.00 0.00 0.00 0.00 0.00 0.00 0.00 0.00 0.00 0.00 0.00 0.00 0.00 0.00 0.00
0.02 0.01 0.02 0.03 0.04 0.05 0.04 0.04 0.04 0.05 0.05 0.05 0.05 0.04 0.03 0.03 0.02 0.01 0.02 0.02 0.01 0.01 0.00 0.00 0.00 0.00 0.00 0.00 0.00 0.00 0.00 0.00 0.00 0.00 0.00 0.00 0.00 0.00 0.00 0.00 0.00 0.00 0.00
0.01 0.01 0.02 0.03 0.04 0.05 0.05 0.04 0.03 0.04 0.05 0.06 0.05 0.03 0.02 0.02 0.01 0.01 0.01 0.01 0.01 0.01 0.00 0.00 0.00 0.00 0.00 0.00 0.00 0.00 0.00 0.00 0.00 0.00 0.00 0.00 0.00 0.00 0.00 0.00 0.00 0.00 0.00
0.01 0.01 0.02 0.03 0.03 0.03 0.04 0.03 0.04 0.05 0.04 0.04 0.04 0.03 0.02 0.02 0.01 0.01 0.01 0.00 0.00 0.00 0.00 0.00 0.00 0.00 0.00 0.00 0.00 0.00 0.00 0.00 0.00 0.00 0.00 0.00 0.00 0.00 0.00 0.00 0.00 0.00 0.00
0.01 0.02 0.02 0.02 0.03 0.03 0.03 0.03 0.02 0.04 0.04 0.03 0.02 0.03 0.03 0.02 0.02 0.02 0.02 0.02 0.01 0.01 0.00 0.00 0.00 0.00 0.00 0.00 0.00 0.00 0.00 0.00 0.00 0.00 0.00 0.00 0.00 0.00 0.00 0.00 0.00 0.00 0.00
0.03 0.03 0.02 0.02 0.03 0.03 0.03 0.03 0.02 0.02 0.02 0.02 0.03 0.03 0.03 0.03 0.02 0.02 0.02 0.01 0.01 0.01 0.00 0.00 0.00 0.00 0.00 0.00 0.00 0.00 0.00 0.00 0.00 0.00 0.00 0.00 0.00 0.00 0.00 0.00 0.00 0.00 0.00
0.03 0.03 0.02 0.03 0.03 0.03 0.03 0.03 0.02 0.02 0.02 0.02 0.02 0.02 0.02 0.02 0.02 0.01 0.01 0.01 0.00 0.00 0.00 0.00 0.00 0.00 0.00 0.00 0.00 0.00 0.00 0.00 0.00 0.00 0.00 0.00 0.00 0.00 0.00 0.00 0.00 0.00 0.00
0.04 0.04 0.03 0.03 0.03 0.03 0.03 0.03 0.02 0.02 0.03 0.02 0.02 0.01 0.01 0.01 0.01 0.01 0.01 0.00 0.01 0.01 0.00 0.00 0.00 0.00 0.00 0.00 0.00 0.00 0.00 0.00 0.00 0.00 0.00 0.00 0.00 0.00 0.00 0.00 0.00 0.00 0.00
0.04 0.04 0.03 0.03 0.03 0.03 0.03 0.02 0.02 0.02 0.02 0.01 0.01 0.01 0.01 0.01 0.01 0.01 0.01 0.00 0.01 0.01 0.00 0.00 0.00 0.00 0.00 0.00 0.00 0.00 0.00 0.00 0.00 0.00 0.00 0.00 0.00 0.00 0.00 0.00 0.00 0.00 0.00
0.04 0.03 0.03 0.03 0.03 0.03 0.02 0.02 0.01 0.01 0.01 0.01 0.01 0.01 0.01 0.01 0.00 0.00 0.00 0.01 0.01 0.00 0.00 0.00 0.00 0.00 0.00 0.00 0.00 0.00 0.00 0.00 0.00 0.00 0.00 0.00 0.00 0.00 0.00 0.00 0.00 0.00 0.00
0.04 0.04 0.02 0.02 0.02 0.02 0.02 0.01 0.01 0.01 0.00 0.00 0.01 0.01 0.01 0.00 0.00 0.00 0.00 0.01 0.01 0.00 0.00 0.00 0.00 0.00 0.00 0.00 0.00 0.00 0.00 0.00 0.00 0.00 0.00 0.00 0.00 0.00 0.00 0.00 0.00 0.00 0.00
0.04 0.03 0.02 0.02 0.02 0.02 0.01 0.01 0.01 0.01 0.01 0.01 0.01 0.00 0.00 0.00 0.00 0.00 0.00 0.00 0.00 0.00 0.00 0.00 0.00 0.00 0.00 0.00 0.00 0.00 0.00 0.00 0.00 0.00 0.00 0.00 0.00 0.00 0.00 0.00 0.00 0.00 0.00
0.03 0.03 0.03 0.02 0.03 0.02 0.02 0.01 0.01 0.01 0.01 0.01 0.00 0.00 0.00 0.00 0.00 0.00 0.00 0.00 0.00 0.00 0.00 0.00 0.00 0.00 0.00 0.00 0.00 0.00 0.00 0.00 0.00 0.00 0.00 0.00 0.00 0.00 0.00 0.00 0.00 0.00 0.00
0.03 0.03 0.04 0.03 0.02 0.02 0.02 0.01 0.01 0.00 0.00 0.00 0.00 0.00 0.00 0.00 0.00 0.00 0.00 0.00 0.00 0.00 0.00 0.00 0.00 0.00 0.00 0.00 0.00 0.00 0.00 0.00 0.00 0.00 0.00 0.00 0.00 0.00 0.00 0.00 0.00 0.00 0.00
MSLP
1008.06 1007.80 1007.53 1007.27 1007.09 1007.00 1007.06 1007.27 1007.64 1008.15 1008.75 1009.39 1010.04 1010.64 1011.18 1011.65 1012.05 1012.42 1012.77 1013.12 1013.49 1013.88 1014.28 1014.67 1015.07 1015.45 1015.82 1016.20 1016.62 1017.08 1017.62 1018.22 1018.88 1019.57 1020.25 1020.89 1021.43 1021.87 1022.17 1022.35 1022.44 1022.47 1022.47
1009.03 1008.80 1008.54 1008.25 1008.00 1007.82 1007.77 1007.88 1008.16 1008.59 1009.13 1009.72 1010.32 1010.87 1011.34 1011.73 1012.05 1012.33 1012.60 1012.89 1013.22 1013.60 1014.01 1014.43 1014.84 1015.24 1015.62 1016.00 1016.39 1016.83 1017.33 1017.92 1018.59 1019.32 1020.06 1020.78 1021.44 1021.98 1022.40 1022.70 1022.88 1022.98 1023.02
1010.06 1009.91 1009.67 1009.38 1009.08 1008.82 1008.67 1008.67 1008.84 1009.18 1009.64 1010.17 1010.71 1011.21 1011.62 1011.95 1012.21 1012.42 1012.63 1012.87 1013.16 1013.52 1013.91 1014.34 1014.75 1015.14 1015.50 1015.84 1016.19 1016.57 1017.03 1017.58 1018.23 1018.97 1019.76 1020.55 1021.31 1021.97 1022.52 1022.94 1023.23 1023.42 1023.54
1011.04 1010.98 1010.80 1010.52 1010.19 1009.87 1009.63 1009.52 1009.59 1009.82 1010.19 1010.65 1011.13 1011.58 1011.96 1012.25 1012.47 1012.64 1012.82 1013.03 1013.31 1013.64 1014.03 1014.44 1014.84 1015.20 1015.53 1015.82 1016.10 1016.41 1016.80 1017.29 1017.91 1018.62 1019.43 1020.27 1021.09 1021.86 1022.52 1023.06 1023.47 1023.76 1023.95
1011.86 1011.89 1011.79 1011.55 1011.23 1010.87 1010.55 1010.34 1010.30 1010.42 1010.70 1011.07 1011.50 1011.91 1012.27 1012.55 1012.77 1012.95 1013.13 1013.35 1013.62 1013.96 1014.34 1014.73 1015.11 1015.45 1015.73 1015.97 1016.18 1016.42 1016.73 1017.15 1017.70 1018.37 1019.15 1020.00 1020.86 1021.68 1022.42 1023.04 1023.55 1023.93 1024.19
1012.48 1012.60 1012.59 1012.42 1012.12 1011.75 1011.38 1011.09 1010.94 1010.96 1011.13 1011.42 1011.79 1012.17 1012.52 1012.82 1013.07 1013.29 1013.51 1013.76 1014.06 1014.41 1014.80 1015.20 1015.56 1015.88 1016.12 1016.31 1016.47 1016.64 1016.88 1017.21 1017.68 1018.28 1019.00 1019.80 1020.64 1021.47 1022.24 1022.91 1023.48 1023.93 1024.26
1012.90 1013.12 1013.20 1013.11 1012.86 1012.51 1012.11 1011.76 1011.53 1011.44 1011.51 1011.72 1012.03 1012.38 1012.73 1013.05 1013.35 1013.63 1013.91 1014.22 1014.57 1014.96 1015.37 1015.78 1016.15 1016.45 1016.67 1016.83 1016.95 1017.07 1017.24 1017.49 1017.87 1018.38 1019.01 1019.73 1020.50 1021.28 1022.03 1022.71 1023.30 1023.78 1024.16
1013.18 1013.51 1013.69 1013.70 1013.52 1013.20 1012.80 1012.42 1012.11 1011.94 1011.92 1012.04 1012.28 1012.59 1012.94 1013.29 1013.63 1013.98 1014.34 1014.71 1015.13 1015.56 1016.01 1016.43 1016.81 1017.11 1017.33 1017.48 1017.58 1017.66 1017.78 1017.97 1018.26 1018.67 1019.19 1019.79 1020.47 1021.16 1021.84 1022.48 1023.05 1023.55 1023.95
1013.43 1013.85 1014.14 1014.24 1014.15 1013.89 1013.52 1013.12 1012.77 1012.53 1012.43 1012.47 1012.64 1012.91 1013.24 1013.60 1013.99 1014.39 1014.81 1015.25 1015.72 1016.20 1016.68 1017.12 1017.51 1017.82 1018.04 1018.19 1018.28 1018.35 1018.44 1018.58 1018.80 1019.11 1019.52 1020.01 1020.56 1021.15 1021.73 1022.30 1022.84 1023.32 1023.73
1013.73 1014.23 1014.61 1014.82 1014.82 1014.63 1014.31 1013.93 1013.57 1013.28 1013.12 1013.09 1013.20 1013.41 1013.71 1014.08 1014.48 1014.92 1015.38 1015.87 1016.37 1016.88 1017.37 1017.83 1018.22 1018.53 1018.76 1018.91 1019.01 1019.07 1019.15 1019.26 1019.42 1019.66 1019.98 1020.36 1020.80 1021.27 1021.76 1022.25 1022.73 1023.18 1023.59
1014.13 1014.70 1015.17 1015.46 1015.55 1015.45 1015.20 1014.87 1014.52 1014.22 1014.03 1013.95 1014.00 1014.17 1014.43 1014.77 1015.17 1015.62 1016.10 1016.60 1017.11 1017.62 1018.11 1018.54 1018.92 1019.22 1019.44 1019.59 1019.70 1019.77 1019.84 1019.94 1020.08 1020.28 1020.53 1020.83 1021.18 1021.55 1021.96 1022.37 1022.79 1023.21 1023.61
1014.64 1015.27 1015.79 1016.16 1016.33 1016.32 1016.15 1015.89 1015.59 1015.31 1015.11 1015.02 1015.03 1015.15 1015.38 1015.69 1016.07 1016.50 1016.97 1017.46 1017.95 1018.44 1018.89 1019.29 1019.62 1019.89 1020.09 1020.22 1020.32 1020.40 1020.48 1020.58 1020.72 1020.90 1021.12 1021.37 1021.66 1021.98 1022.31 1022.67 1023.04 1023.42 1023.80
1015.25 1015.90 1016.46 1016.87 1017.10 1017.17 1017.10 1016.92 1016.69 1016.47 1016.30 1016.21 1016.22 1016.32 1016.51 1016.79 1017.14 1017.54 1017.97 1018.43 1018.88 1019.32 1019.71 1020.05 1020.33 1020.54 1020.69 1020.80 1020.88 1020.95 1021.04 1021.16 1021.31 1021.50 1021.72 1021.96 1022.22 1022.51 1022.80 1023.12 1023.45 1023.80 1024.15
1015.90 1016.54 1017.10 1017.53 1017.81 1017.95 1017.96 1017.88 1017.74 1017.61 1017.50 1017.44 1017.46 1017.55 1017.73 1017.98 1018.29 1018.66 1019.06 1019.47 1019.87 1020.24 1020.57 1020.83 1021.04 1021.18 1021.27 1021.33 1021.38 1021.45 1021.54 1021.68 1021.85 1022.06 1022.30 1022.56 1022.82 1023.09 1023.37 1023.66 1023.95 1024.27 1024.59
1016.55 1017.15 1017.68 1018.10 1018.40 1018.59 1018.68 1018.70 1018.67 1018.63 1018.59 1018.59 1018.64 1018.75 1018.92 1019.15 1019.44 1019.78 1020.14 1020.50 1020.85 1021.16 1021.42 1021.61 1021.73 1021.80 1021.83 1021.83 1021.85 1021.90 1021.99 1022.14 1022.34 1022.59 1022.85 1023.13 1023.41 1023.69 1023.95 1024.21 1024.48 1024.75 1025.02
1017.16 1017.70 1018.18 1018.57 1018.87 1019.10 1019.26 1019.37 1019.44 1019.49 1019.54 1019.60 1019.70 1019.83 1020.00 1020.23 1020.50 1020.80 1021.13 1021.46 1021.76 1022.02 1022.21 1022.34 1022.39 1022.39 1022.36 1022.32 1022.30 1022.33 1022.42 1022.58 1022.80 1023.07 1023.37 1023.68 1023.97 1024.25 1024.50 1024.73 1024.95 1025.16 1025.38
1017.73 1018.20 1018.62 1018.96 1019.26 1019.51 1019.72 1019.90 1020.05 1020.19 1020.32 1020.44 1020.58 1020.74 1020.92 1021.14 1021.40 1021.68 1021.98 1022.27 1022.54 1022.76 1022.91 1022.99 1023.00 1022.96 1022.88 1022.80 1022.76 1022.77 1022.85 1023.02 1023.25 1023.54 1023.86 1024.18 1024.48 1024.75 1024.97 1025.16 1025.33 1025.47 1025.61
1018.28 1018.69 1019.04 1019.34 1019.62 1019.87 1020.12 1020.35 1020.57 1020.77 1020.95 1021.13 1021.29 1021.47 1021.66 1021.87 1022.11 1022.37 1022.65 1022.92 1023.17 1023.37 1023.50 1023.55 1023.54 1023.47 1023.37 1023.27 1023.21 1023.21 1023.29 1023.46 1023.70 1024.00 1024.32 1024.64 1024.94 1025.18 1025.37 1025.51 1025.60 1025.67 1025.72
1018.84 1019.19 1019.48 1019.75 1020.00 1020.26 1020.52 1020.78 1021.04 1021.28 1021.50 1021.70 1021.88 1022.05 1022.23 1022.43 1022.65 1022.90 1023.15 1023.41 1023.64 1023.83 1023.95 1024.00 1023.99 1023.92 1023.82 1023.72 1023.67 1023.67 1023.75 1023.92 1024.16 1024.45 1024.77 1025.07 1025.34 1025.55 1025.70 1025.77 1025.79 1025.77 1025.73
1019.40 1019.71 1019.97 1020.21 1020.44 1020.70 1020.96 1021.24 1021.51 1021.77 1021.99 1022.19 1022.37 1022.53 1022.69 1022.87 1023.07 1023.29 1023.52 1023.76 1023.98 1024.17 1024.30 1024.36 1024.36 1024.31 1024.23 1024.16 1024.12 1024.13 1024.22 1024.39 1024.62 1024.90 1025.20 1025.47 1025.71 1025.88 1025.97 1025.98 1025.94 1025.84 1025.72
1019.95 1020.23 1020.48 1020.70 1020.93 1021.17 1021.44 1021.71 1021.98 1022.23 1022.45 1022.64 1022.80 1022.94 1023.08 1023.22 1023.39 1023.59 1023.80 1024.03 1024.24 1024.43 1024.57 1024.65 1024.67 1024.65 1024.61 1024.57 1024.55 1024.58 1024.68 1024.85 1025.07 1025.33 1025.59 1025.84 1026.03 1026.16 1026.20 1026.17 1026.06 1025.91 1025.73
1020.43 1020.71 1020.95 1021.16 1021.39 1021.63 1021.88 1022.15 1022.40 1022.64 1022.85 1023.02 1023.16 1023.28 1023.39 1023.52 1023.66 1023.83 1024.03 1024.24 1024.45 1024.63 1024.78 1024.89 1024.94 1024.96 1024.95 1024.94 1024.95 1025.01 1025.11 1025.27 1025.48 1025.71 1025.94 1026.14 1026.30 1026.39 1026.39 1026.33 1026.19 1026.01 1025.80
1020.78 1021.07 1021.30 1021.52 1021.75 1021.98 1022.23 1022.48 1022.72 1022.95 1023.14 1023.30 1023.43 1023.54 1023.65 1023.76 1023.90 1024.06 1024.24 1024.43 1024.63 1024.82 1024.98 1025.10 1025.18 1025.23 1025.26 1025.29 1025.32 1025.39 1025.50 1025.65 1025.83 1026.02 1026.21 1026.38 1026.50 1026.55 1026.54 1026.46 1026.32 1026.13 1025.91
1020.95 1021.24 1021.48 1021.71 1021.93 1022.16 1022.40 1022.64 1022.88 1023.10 1023.29 1023.45 1023.59 1023.71 1023.83 1023.95 1024.09 1024.25 1024.43 1024.63 1024.82 1025.01 1025.17 1025.31 1025.41 1025.48 1025.54 1025.59 1025.65 1025.73 1025.83 1025.96 1026.10 1026.26 1026.41 1026.53 1026.61 1026.65 1026.62 1026.55 1026.42 1026.25 1026.06
1020.91 1021.20 1021.45 1021.67 1021.90 1022.13 1022.37 1022.60 1022.84 1023.06 1023.27 1023.46 1023.62 1023.78 1023.93 1024.09 1024.25 1024.43 1024.62 1024.82 1025.01 1025.20 1025.37 1025.51 1025.62 1025.71 1025.79 1025.86 1025.93 1026.00 1026.09 1026.19 1026.31 1026.42 1026.52 1026.60 1026.65 1026.67 1026.64 1026.58 1026.48 1026.35 1026.20
1020.68 1020.97 1021.22 1021.45 1021.67 1021.91 1022.14 1022.39 1022.63 1022.87 1023.11 1023.33 1023.55 1023.76 1023.96 1024.17 1024.37 1024.58 1024.79 1025.00 1025.20 1025.39 1025.55 1025.70 1025.82 1025.92 1026.01 1026.08 1026.15 1026.22 1026.30 1026.37 1026.45 1026.51 1026.57 1026.61 1026.62 1026.62 1026.60 1026.56 1026.50 1026.42 1026.32
Thickness
5711 5713 5714 5713 5713 5713 5715 5716 5716 5716 5715 5714 5713 5709 5707 5706 5705 5705 5705 5705 5705 5705 5706 5707 5707 5707 5706 5706 5705 5702 5700 5697 5696 5690 5683 5680 5680 5680 5680 5680 5679 5678 5677
5700 5702 5701 5700 5701 5700 5700 5703 5705 5708 5709 5709 5707 5705 5701 5699 5697 5697 5697 5698 5698 5700 5701 5702 5703 5703 5703 5702 5701 5699 5696 5693 5692 5687 5678 5671 5668 5669 5668 5669 5669 5669 5668
5688 5688 5689 5686 5688 5688 5688 5691 5694 5699 5700 5701 5699 5697 5693 5691 5688 5687 5688 5688 5691 5693 5695 5696 5697 5698 5698 5697 5697 5696 5693 5689 5687 5686 5681 5672 5665 5659 5657 5658 5658 5658 5658
5677 5676 5675 5675 5675 5676 5677 5681 5684 5686 5688 5690 5691 5689 5686 5683 5681 5680 5679 5679 5682 5685 5687 5689 5690 5691 5691 5691 5691 5692 5690 5687 5682 5680 5680 5678 5673 5661 5651 5648 5647 5648 5647
5666 5665 5664 5663 5663 5664 5666 5670 5674 5676 5677 5679 5680 5680 5677 5676 5674 5672 5672 5672 5673 5676 5678 5680 5681 5682 5683 5684 5684 5684 5684 5682 5679 5676 5673 5669 5667 5663 5654 5643 5639 5637 5636
5655 5654 5652 5654 5653 5653 5655 5660 5663 5665 5667 5669 5670 5670 5669 5667 5666 5665 5665 5665 5664 5665 5668 5671 5671 5672 5673 5674 5674 5675 5675 5673 5672 5669 5666 5663 5660 5655 5651 5642 5635 5629 5625
5644 5642 5640 5641 5641 5642 5644 5648 5652 5653 5655 5657 5658 5659 5658 5658 5658 5657 5657 5656 5655 5655 5657 5658 5660 5660 5661 5662 5663 5664 5663 5662 5660 5658 5656 5654 5653 5650 5645 5638 5628 5621 5615
5633 5631 5629 5629 5629 5630 5632 5635 5638 5640 5643 5644 5645 5646 5646 5646 5645 5646 5645 5645 5644 5644 5645 5647 5647 5648 5649 5650 5651 5651 5650 5649 5648 5646 5645 5643 5642 5641 5637 5632 5624 5614 5606
5624 5622 5620 5618 5618 5618 5619 5622 5626 5628 5630 5631 5631 5632 5632 5634 5633 5633 5633 5633 5633 5633 5634 5635 5636 5635 5636 5636 5637 5636 5636 5636 5634 5633 5632 5631 5630 5629 5627 5624 5620 5613 5601
5616 5613 5611 5610 5609 5608 5608 5610 5613 5615 5617 5619 5619 5620 5620 5621 5621 5622 5621 5621 5622 5622 5623 5623 5624 5624 5624 5624 5624 5623 5622 5622 5621 5620 5619 5618 5617 5616 5615 5613 5609 5606 5599
5608 5605 5602 5601 5599 5599 5599 5601 5601 5603 5604 5605 5606 5608 5608 5609 5609 5609 5609 5609 5610 5611 5611 5612 5612 5612 5612 5612 5612 5611 5610 5609 5608 5607 5607 5605 5605 5604 5602 5601 5598 5594 5590
5601 5598 5594 5591 5590 5590 5590 5590 5590 5591 5592 5593 5594 5595 5596 5597 5597 5597 5597 5598 5599 5599 5600 5600 5600 5600 5599 5599 5599 5600 5599 5598 5596 5595 5594 5593 5593 5591 5589 5588 5585 5581 5578
5596 5591 5586 5583 5581 5580 5580 5579 5579 5580 5581 5582 5583 5583 5584 5584 5585 5585 5586 5586 5587 5587 5588 5588 5588 5587 5587 5588 5588 5588 5586 5585 5584 5582 5581 5580 5579 5576 5575 5573 5571 5568 5565
5590 5584 5578 5575 5573 5571 5570 5569 5568 5569 5570 5571 5571 5571 5572 5573 5573 5574 5575 5575 5576 5576 5575 5575 5575 5575 5575 5576 5576 5575 5574 5572 5571 5570 5569 5568 5566 5564 5562 5560 5557 5555 5551
5582 5577 5571 5567 5564 5561 5560 5559 5559 5559 5560 5560 5560 5559 5560 5562 5563 5563 5564 5564 5564 5563 5563 5564 5563 5564 5564 5564 5563 5563 5562 5560 5558 5557 5556 5555 5554 5553 5551 5548 5544 5542 5538
5576 5569 5564 5559 5556 5554 5552 5550 5549 5549 5550 5550 5550 5550 5551 5551 5552 5552 5552 5552 5552 5551 5551 5551 5551 5551 5551 5552 5553 5552 5550 5549 5547 5545 5544 5543 5542 5542 5540 5538 5535 5532 5528
5570 5563 5557 5552 5548 5546 5544 5542 5541 5541 5541 5541 5541 5541 5541 5541 5542 5542 5542 5541 5540 5540 5539 5539 5539 5539 5540 5542 5543 5543 5541 5539 5537 5535 5533 5532 5530 5530 5529 5527 5525 5522 5519
5563 5556 5550 5544 5540 5538 5536 5535 5534 5534 5534 5533 5533 5533 5533 5533 5532 5532 5531 5531 5530 5530 5529 5529 5529 5530 5530 5532 5533 5533 5531 5528 5526 5524 5522 5520 5518 5518 5517 5516 5513 5511 5509
5556 5549 5543 5538 5534 5532 5530 5529 5528 5527 5526 5525 5525 5525 5525 5525 5524 5524 5523 5523 5522 5522 5521 5520 5520 5520 5521 5523 5524 5523 5520 5517 5515 5513 5512 5510 5508 5508 5507 5505 5502 5501 5499
5547 5541 5536 5532 5529 5526 5524 5523 5521 5520 5520 5519 5519 5519 5518 5518 5517 5517 5517 5516 5515 5514 5513 5512 5512 5512 5512 5514 5515 5514 5511 5507 5505 5503 5502 5501 5499 5498 5497 5495 5493 5491 5490
5541 5536 5531 5527 5524 5522 5520 5518 5517 5515 5515 5515 5514 5513 5512 5512 5511 5511 5510 5509 5508 5506 5505 5503 5503 5503 5504 5505 5505 5505 5502 5499 5497 5495 5493 5492 5492 5491 5490 5488 5486 5484 5484
5535 5531 5527 5523 5520 5519 5517 5514 5513 5512 5512 5510 5509 5508 5508 5508 5507 5506 5504 5503 5501 5499 5497 5495 5494 5495 5495 5496 5496 5496 5495 5493 5490 5488 5486 5486 5487 5486 5485 5483 5482 5480 5479
5531 5527 5523 5520 5517 5516 5515 5512 5510 5510 5508 5506 5504 5503 5503 5502 5502 5501 5499 5497 5495 5493 5490 5489 5487 5487 5487 5488 5489 5488 5488 5486 5484 5482 5483 5483 5483 5482 5480 5479 5478 5477 5474
5528 5524 5520 5517 5514 5513 5512 5510 5509 5508 5505 5502 5500 5499 5498 5497 5496 5495 5494 5491 5489 5488 5486 5484 5482 5481 5480 5480 5481 5481 5481 5480 5479 5479 5480 5480 5479 5478 5476 5475 5474 5472 5470
5526 5522 5517 5514 5512 5511 5509 5508 5507 5505 5502 5500 5498 5496 5494 5492 5489 5487 5486 5486 5485 5486 5484 5482 5479 5477 5476 5476 5477 5476 5475 5475 5475 5475 5475 5474 5472 5471 5470 5469 5468 5467 5466
5525 5520 5516 5513 5511 5509 5507 5506 5505 5503 5500 5497 5495 5492 5490 5488 5486 5484 5482 5483 5483 5484 5484 5482 5480 5478 5477 5476 5475 5474 5474 5474 5474 5472 5469 5467 5466 5465 5464 5463 5463 5463 5462